[[[{"header":{"parameterUnit":"kt","parameterCategory":2,"dx":1,"dy":1,"la1":30.253999710083008,"la2":30.299108505249023,"lo1":-89.0895004272461,"lo2":-89.04439544677734,"nx":28,"ny":28,"refTime":"2022-10-31T21:00:00:Z","depth":0,"parameterNumber":1,"parameterNumberName":"U-component_of_WINDS"},"data":[1.402,1.4033,1.3993,1.399,1.3953,1.3943,1.3927,1.3901,1.3871,1.3855,1.3838,1.3798,1.375,1.372,1.37,1.3682,1.3676,1.3712,1.3684,1.3563,1.3544,1.3525,1.3519,1.3711,1.3711,1.3815,1.3816,1.3817,1.3938,1.3902,1.3888,1.3847,1.3835,1.3777,1.3739,1.3732,1.3725,1.3687,1.3668,1.365,1.363,1.3568,1.3542,1.3547,1.3517,1.3543,1.3541,1.3534,1.3404,1.3398,1.3567,1.3567,1.3567,1.3567,1.3567,1.3567,1.3779,1.3788,1.3739,1.3722,1.369,1.3663,1.3665,1.3614,1.3599,1.3567,1.352,1.351,1.3463,1.3409,1.3381,1.3372,1.3336,1.335,1.3353,1.3358,1.337,1.3226,1.3365,1.3365,1.3364,1.3364,1.3363,0,1.3648,1.3614,1.3596,1.3568,1.3553,1.3526,1.3494,1.3494,1.3403,1.3395,1.3379,1.3362,1.3329,1.3309,1.3274,1.324,1.3176,1.3165,1.3175,1.3197,1.3224,1.321,1.2999,1.3161,1.3159,1.3157,1.3156,1.3156,1.3484,1.3499,1.3426,1.342,1.3391,1.3382,1.3368,1.3286,1.3275,1.3223,1.3235,1.3213,1.3191,1.3171,1.311,1.3085,1.3053,1.312,1.3049,1.3071,1.3054,1.3054,1.3055,1.3135,1.3138,1.314,1.3142,0,1.3396,1.3326,1.3336,1.326,1.3242,1.3262,1.3198,1.3203,1.3152,1.3152,1.3147,1.3067,1.3052,1.2978,1.2946,1.2908,1.2941,1.2911,1.2958,1.2947,1.3,1.2996,1.3181,1.3201,1.3001,1.3003,1.3005,0,1.3228,1.325,1.3145,1.3154,1.3177,1.3092,1.3117,1.3075,1.3031,1.3031,1.2946,1.2948,1.2853,1.2844,1.2788,1.2801,1.2795,1.2767,1.2751,1.2774,1.2778,1.2765,1.2756,1.2716,1.2715,1.2714,1.2713,0,1.3096,1.3065,1.3079,1.3061,1.2981,1.299,1.2957,1.2907,1.2893,1.2863,1.2853,1.2824,1.2808,1.2788,1.2716,1.267,1.2731,1.2653,1.2701,1.2703,1.2717,1.2718,1.2901,1.2712,1.2712,1.2712,1.2711,0,1.2948,1.2919,1.2951,1.2882,1.2877,1.2886,1.2852,1.2842,1.2795,1.276,1.2735,1.2669,1.2674,1.2603,1.2609,1.257,1.256,1.2533,1.2535,1.253,1.2452,1.2565,1.2747,1.2764,1.2528,1.2526,1.2524,0,1.2817,1.2829,1.2755,1.2786,1.2781,1.2685,1.2694,1.2654,1.2607,1.2596,1.2544,1.2532,1.2463,1.2448,1.2461,1.2407,1.2457,1.2398,1.2383,1.2383,1.2399,1.2565,1.2611,1.2716,1.2504,1.2506,1.2508,0,1.2705,1.2607,1.2617,1.2592,1.2524,1.2519,1.2529,1.2497,1.2494,1.2457,1.2463,1.2443,1.239,1.2367,1.2309,1.2327,1.2421,1.2267,1.2264,1.2297,1.2487,1.253,1.2548,1.2378,1.238,1.2382,1.2491,0,1.2499,1.2494,1.2519,1.2466,1.2449,1.2464,1.2383,1.2377,1.2323,1.2272,1.228,1.2225,1.2192,1.2192,1.2139,1.2202,1.2179,1.2122,1.2046,1.2157,1.219,1.2204,1.2003,1.2,1.1998,1.1996,0,0,1.2391,1.2382,1.2299,1.2304,1.2285,1.2184,1.2206,1.2176,1.2117,1.2106,1.2064,1.2028,1.1985,1.2002,1.203,1.2016,1.202,1.1984,1.2105,1.2117,1.2129,1.2166,1.2182,1.1992,1.1991,1.199,1.1989,0,1.2298,1.2256,1.2279,1.2244,1.2188,1.2133,1.2139,1.2065,1.2033,1.2039,1.1954,1.1949,1.1921,1.1887,1.1867,1.198,1.1916,1.1976,1.2065,1.2084,1.21,1.2114,1.2154,1.217,1.1984,1.1984,1.1984,0,1.2173,1.2119,1.2121,1.2072,1.2034,1.203,1.1931,1.1931,1.1927,1.1814,1.1821,1.178,1.1727,1.1753,1.1761,1.1722,1.1827,1.1779,1.1791,1.179,1.1804,1.1823,1.184,1.1619,1.1618,1.1618,0,0,1.2104,1.2098,1.2013,1.2046,1.2028,1.1945,1.1934,1.1878,1.1833,1.1815,1.1759,1.1718,1.1701,1.1692,1.1671,1.1711,1.1693,1.1737,1.1754,1.1769,1.1776,1.1794,1.1813,1.1614,1.1614,1.1614,0,0,1.207,1.1972,1.1925,1.1953,1.1913,1.183,1.1853,1.1793,1.1766,1.1755,1.166,1.1644,1.1667,1.1629,1.1592,1.1642,1.1569,1.1576,1.1666,1.1687,1.1703,1.1712,1.1481,0,0,0,0,0,1.1932,1.1984,1.1943,1.1935,1.1871,1.1854,1.1845,1.1767,1.1717,1.1738,1.1682,1.1613,1.1589,1.1554,1.1548,1.159,1.1569,1.1577,1.1584,1.1709,1.1732,1.1751,0,0,0,0,0,0,1.1929,1.192,1.1941,1.1862,1.1846,1.1851,1.1749,1.1729,1.1713,1.17,1.1626,1.1611,1.1544,1.1552,1.1548,1.1589,1.1482,1.1572,1.1579,1.1585,1.1717,1.1735,1.1751,0,0,0,0,0,1.1925,1.1918,1.1836,1.186,1.1847,1.1757,1.1746,1.1729,1.1715,1.1628,1.161,1.1658,1.1548,1.1538,1.1549,1.1593,1.1485,1.1483,1.1576,1.1582,1.1586,1.1726,0,0,0,0,0,0,1.1923,1.1902,1.1831,1.1825,1.1834,1.1755,1.1739,1.1729,1.1642,1.1625,1.1654,1.1645,1.1551,1.1543,1.1536,1.1599,1.1487,1.1485,1.1485,1.158,1.1585,1.1588,0,0,0,0,0,0,1.1905,1.1897,1.1828,1.1799,1.1788,1.1753,1.174,1.1737,1.1642,1.1673,1.1663,1.1651,1.156,1.1546,1.1541,1.1539,1.1488,1.1487,1.1486,1.1486,1.1584,1.1587,0,0,0,0,0,0,1.19,1.1893,1.1801,1.1792,1.1782,1.1699,1.1749,1.1688,1.1619,1.1679,1.161,1.1606,1.1566,1.1558,1.1545,1.1546,1.1541,1.1488,1.1487,1.1487,1.1486,0,0,0,0,0,0,0,1.1896,1.1964,1.1873,1.1786,1.1778,1.1761,1.1759,1.1757,1.1618,1.1614,1.1611,1.1608,1.1496,1.1494,1.1493,1.1551,0,0,1.1488,1.1488,0,0,0,0,0,0,0,0,1.1965,1.1964,1.1872,1.1871,1.187,1.1761,1.1759,1.1757,1.1617,1.1615,1.1612,1.1609,1.1495,1.1494,1.1493,0,0,0,0,0,0,0,0,0,0,0,0,0,0,0,1.1872,1.1871,0,1.176,1.1759,1.1758,1.1617,1.1615,1.1612,1.161,1.1495,1.1494,1.1493,0,0,0,0,0,0,0,0,0,0,0,0,0,0,0,0,0,0,0,0,0,0,0,0,0,0,0,0,0,0,0,0,0,0,0,0,0,0,0,0,0,0,0,0,0,0,0,0,0,0,0,0,0,0,0,0,0,0,0,0,0,0,0,0,0,0,0,0,0]}],[{"header":{"parameterUnit":"kt","parameterCategory":2,"dx":1,"dy":1,"la1":30.253999710083008,"la2":30.299108505249023,"lo1":-89.0895004272461,"lo2":-89.04439544677734,"nx":28,"ny":28,"refTime":"2022-10-31T21:00:00:Z","depth":0,"parameterNumber":2,"parameterNumberName":"V-component_of_WINDS"},"data":[-4.049,-4.0601,-4.0645,-4.0791,-4.0855,-4.0963,-4.1016,-4.1088,-4.1157,-4.129,-4.1375,-4.143,-4.1515,-4.1626,-4.172,-4.1742,-4.1778,-4.1787,-4.1811,-4.1735,-4.1727,-4.172,-4.1697,-4.1794,-4.1794,-4.1885,-4.1885,-4.1886,-4.0433,-4.0497,-4.0587,-4.0704,-4.0782,-4.0801,-4.0895,-4.0959,-4.1054,-4.1139,-4.1224,-4.1345,-4.1446,-4.153,-4.1634,-4.1687,-4.1701,-4.1712,-4.1709,-4.1722,-4.1642,-4.1617,-4.1699,-4.1699,-4.1699,-4.1699,-4.1699,-4.1699,-4.034,-4.0405,-4.0501,-4.0599,-4.067,-4.0747,-4.0817,-4.0882,-4.0971,-4.1085,-4.1119,-4.1227,-4.132,-4.1466,-4.1525,-4.1612,-4.1607,-4.1632,-4.1639,-4.1644,-4.1645,-4.151,-4.1631,-4.1631,-4.1631,-4.1631,-4.1631,0,-4.0286,-4.0318,-4.0407,-4.0509,-4.0583,-4.0666,-4.075,-4.0794,-4.0875,-4.0944,-4.1049,-4.1116,-4.1248,-4.1351,-4.1458,-4.1515,-4.154,-4.1547,-4.1564,-4.155,-4.1524,-4.1539,-4.1407,-4.1543,-4.1542,-4.1542,-4.1541,-4.1541,-4.0196,-4.0266,-4.0387,-4.0443,-4.0499,-4.059,-4.0652,-4.0719,-4.0782,-4.0894,-4.0948,-4.1051,-4.1138,-4.1297,-4.1371,-4.147,-4.1483,-4.153,-4.1498,-4.1482,-4.1485,-4.148,-4.1488,-4.1535,-4.1536,-4.1536,-4.1537,0,-4.0142,-4.0212,-4.0333,-4.0446,-4.0476,-4.0546,-4.0642,-4.0709,-4.0765,-4.0864,-4.0891,-4.0979,-4.1079,-4.1147,-4.1275,-4.1307,-4.1424,-4.1434,-4.1393,-4.1399,-4.1448,-4.1443,-4.1596,-4.162,-4.1519,-4.152,-4.1521,0,-4.0093,-4.0181,-4.028,-4.0347,-4.0448,-4.0512,-4.0611,-4.0668,-4.0749,-4.0828,-4.0868,-4.0941,-4.1016,-4.1099,-4.1147,-4.1254,-4.1278,-4.1309,-4.132,-4.1305,-4.1301,-4.1339,-4.1334,-4.1343,-4.1342,-4.1341,-4.134,0,-4.0,-4.0156,-4.0265,-4.0312,-4.044,-4.0489,-4.0545,-4.0635,-4.0695,-4.0784,-4.0824,-4.0922,-4.0976,-4.1052,-4.1112,-4.1088,-4.1245,-4.1223,-4.1276,-4.1275,-4.1307,-4.1304,-4.1424,-4.1339,-4.1339,-4.1339,-4.1339,0,-3.997,-4.0059,-4.0206,-4.0314,-4.0352,-4.0423,-4.0525,-4.0602,-4.0694,-4.0729,-4.0799,-4.0833,-4.0931,-4.0906,-4.1043,-4.0994,-4.1045,-4.1084,-4.1089,-4.1102,-4.1071,-4.113,-4.1236,-4.125,-4.1114,-4.1112,-4.1111,0,-3.9845,-4.0012,-4.0068,-4.0206,-4.0292,-4.0331,-4.0412,-4.0492,-4.0545,-4.0626,-4.0684,-4.0775,-4.077,-4.0808,-4.0867,-4.0931,-4.0994,-4.0924,-4.104,-4.1043,-4.1015,-4.1114,-4.1113,-4.1206,-4.1088,-4.109,-4.1092,0,-3.9757,-3.9911,-3.9931,-3.9988,-4.0103,-4.0175,-4.0267,-4.0372,-4.0423,-4.0507,-4.0587,-4.0716,-4.0718,-4.0779,-4.0817,-4.0874,-4.0953,-4.0868,-4.0872,-4.0882,-4.1081,-4.108,-4.1095,-4.0965,-4.0968,-4.0971,-4.1073,0,-3.9698,-3.9789,-3.9848,-3.9969,-4.0035,-4.0124,-4.0196,-4.0256,-4.0286,-4.0339,-4.0456,-4.0538,-4.0643,-4.0678,-4.0707,-4.0817,-4.0809,-4.0809,-4.0789,-4.0853,-4.0889,-4.0903,-4.073,-4.073,-4.073,-4.073,0,0,-3.9561,-3.9693,-3.9751,-3.9842,-3.9902,-3.994,-4.0029,-4.0091,-4.0215,-4.0255,-4.0245,-4.0438,-4.0504,-4.0638,-4.0664,-4.0706,-4.0733,-4.0707,-4.0822,-4.0832,-4.0841,-4.0878,-4.0892,-4.0729,-4.0729,-4.0729,-4.0729,0,-3.9554,-3.9622,-3.9709,-3.9776,-3.9877,-3.9929,-3.995,-4.0057,-4.0095,-4.0209,-4.0238,-4.0317,-4.0468,-4.0535,-4.0589,-4.0693,-4.071,-4.0719,-4.0752,-4.0818,-4.0828,-4.0837,-4.0875,-4.0888,-4.0729,-4.0729,-4.0729,0,-3.948,-3.9559,-3.9608,-3.9744,-3.981,-3.9897,-3.9893,-3.9985,-4.005,-4.0085,-4.0198,-4.0253,-4.0348,-4.0465,-4.052,-4.0511,-4.0685,-4.0642,-4.0645,-4.0652,-4.072,-4.0732,-4.0742,-4.06,-4.0599,-4.0599,0,0,-3.9464,-3.9549,-3.9653,-3.9747,-3.9787,-3.9866,-3.9918,-3.9953,-4.0038,-4.0072,-4.0142,-4.0224,-4.0313,-4.037,-4.0457,-4.0575,-4.06,-4.0623,-4.0629,-4.0634,-4.0644,-4.0712,-4.0724,-4.0596,-4.0596,-4.0596,0,0,-3.9456,-3.958,-3.9595,-3.9714,-3.9794,-3.9902,-3.9957,-3.9978,-4.0064,-4.0061,-4.0123,-4.0148,-4.0258,-4.031,-4.0265,-4.0451,-4.0429,-4.0441,-4.0412,-4.0421,-4.0427,-4.0412,-4.0272,0,0,0,0,0,-3.9485,-3.9565,-3.9578,-3.9608,-3.9779,-3.9896,-3.9918,-3.9972,-3.9956,-3.9998,-4.0061,-4.0075,-4.0299,-4.0261,-4.029,-4.0339,-4.056,-4.0567,-4.0573,-4.0564,-4.0572,-4.0579,0,0,0,0,0,0,-3.9497,-3.9534,-3.9576,-3.9686,-3.9725,-3.9893,-3.9878,-3.9895,-3.9953,-3.9954,-4.0063,-4.0079,-4.0126,-4.0249,-4.0275,-4.0321,-4.0263,-4.0563,-4.0568,-4.0573,-4.0567,-4.0573,-4.0579,0,0,0,0,0,-3.9507,-3.9537,-3.9797,-3.9685,-3.9719,-3.981,-3.9876,-3.989,-3.9935,-4.0031,-4.0047,-3.997,-4.0126,-4.0151,-4.0265,-4.0308,-4.0246,-4.0255,-4.0566,-4.057,-4.0574,-4.057,0,0,0,0,0,0,-3.9515,-3.9551,-3.9805,-3.9817,-3.9659,-3.9802,-3.9826,-3.9885,-4.0009,-4.0026,-3.9941,-3.994,-4.0127,-4.0146,-4.0165,-4.03,-4.0232,-4.0242,-4.0247,-4.0569,-4.0573,-4.0576,0,0,0,0,0,0,-3.9535,-3.9561,-3.9811,-3.9775,-3.9783,-3.9794,-3.9815,-3.9919,-4.001,-3.9912,-3.9916,-3.9939,-4.0098,-4.0143,-4.0158,-4.0318,-4.0221,-4.023,-4.0237,-4.0241,-4.0572,-4.0575,0,0,0,0,0,0,-3.9547,-3.9569,-3.9772,-3.9778,-3.9786,-3.9928,-3.9886,-4.0058,-3.9979,-3.9906,-3.9974,-3.9971,-4.0094,-4.0111,-4.0153,-4.0306,-4.0315,-4.0222,-4.0228,-4.0232,-4.0235,0,0,0,0,0,0,0,-3.9557,-3.9395,-3.9732,-3.9782,-3.9788,-3.9931,-3.9934,-3.9938,-3.9979,-3.9977,-3.9974,-3.9972,-4.017,-4.018,-4.019,-4.0297,0,0,-4.0221,-4.0225,0,0,0,0,0,0,0,0,-3.9387,-3.9393,-3.9732,-3.9735,-3.9737,-3.9932,-3.9934,-3.9937,-3.9978,-3.9977,-3.9975,-3.9973,-4.0173,-4.0181,-4.0189,0,0,0,0,0,0,0,0,0,0,0,0,0,0,0,-3.9733,-3.9735,0,-3.9932,-3.9934,-3.9936,-3.9978,-3.9977,-3.9975,-3.9974,-4.0175,-4.0182,-4.0188,0,0,0,0,0,0,0,0,0,0,0,0,0,0,0,0,0,0,0,0,0,0,0,0,0,0,0,0,0,0,0,0,0,0,0,0,0,0,0,0,0,0,0,0,0,0,0,0,0,0,0,0,0,0,0,0,0,0,0,0,0,0,0,0,0,0,0,0,0]}]]]